Pittsburgh, PA

10:17 PM EST on December 14, 2019 (GMT -0500)
Pittsburgh International

Weather History for KPIT - October, 2019

Change the Weather History Date:

Tuesday, October 22, 2019

  Actual Average Record
Temperature  
Mean Temperature 56 °F 51 °F  
Max Temperature 63 °F 61 °F 84 °F (1947)
Min Temperature 48 °F 41 °F 29 °F (1997)
Degree Days  
Heating Degree Days 10 14  
Month to date heating degree days 199 247  
Since 1 July heating degree days 207 361  
Cooling Degree Days 0 0  
Month to date cooling degree days 37 6  
Year to date cooling degree days 934 734  
Growing Degree Days 6 (Base 50)    
Moisture  
Dew Point 52 °F    
Average Humidity 84    
Maximum Humidity 96    
Minimum Humidity 65    
Precipitation  
Precipitation 0.52 in 0.07 in 1.12 in (1927)
Month to date precipitation 3.72 1.57  
Year to date precipitation 43.81 31.39  
Snow  
Snow 0.00 in 0.00 in 2.20 in (1925)
Month to date snowfall 0.0 0.1  
Snow Depth 0.00 in    
Sea Level Pressure  
Sea Level Pressure 29.81 in    
Wind  
Wind Speed 6 mph ()    
Max Wind Speed 16 mph    
Max Gust Speed 21 mph    
Visibility 8.4 miles    
Events Rain    
T = Trace of Precipitation, MM = Missing Value Source: Averaged Metar Reports

Daily Weather History Graph

Daily Weather History Graph

Search for Another Location

Airport or City:

Astronomy

Oct. 22, 2019 Rise Set
Actual Time 7:39 AM EDT 6:30 PM EDT
Civil Twilight 7:11 AM EDT 6:58 PM EDT
Nautical Twilight 6:39 AM EDT 7:30 PM EDT
Astronomical Twilight 6:08 AM EDT 8:02 PM EDT
Moon 12:45 AM EDT (10/22) 3:40 PM EDT (10/22)
Length of Visible Light 11h 47m
Length of Day
10h 51m
Last Quarter, 37% of the Moon is Illuminated
Oct 22
Last Quarter
Oct 27
New
Nov 4
First Quarter
Nov 12
Full
Nov 19
Last Quarter

Hourly Weather History & Observations

Time (EDT) Temp. Dew Point Humidity Pressure Visibility Wind Dir Wind Speed Gust Speed Precip Events Conditions
12:51 AM 63.0 °F 51.1 °F 65% 29.84 in 10.0 mi SE 9.2 mph - N/A   Overcast
1:51 AM 63.0 °F 51.1 °F 65% 29.82 in 10.0 mi SSE 6.9 mph - N/A   Overcast
2:51 AM 62.1 °F 52.0 °F 70% 29.80 in 10.0 mi SSE 6.9 mph - N/A   Overcast
3:51 AM 62.1 °F 52.0 °F 70% 29.80 in 10.0 mi South 4.6 mph - N/A   Overcast
4:51 AM 60.1 °F 57.0 °F 90% 29.81 in 4.0 mi SW 5.8 mph - 0.01 in Rain Light Rain
5:51 AM 59.0 °F 57.9 °F 96% 29.80 in 10.0 mi SSE 4.6 mph - 0.01 in   Light Drizzle
6:09 AM 59.0 °F 57.9 °F 96% 29.78 in 7.0 mi SE 5.8 mph - 0.00 in   Light Drizzle
6:51 AM 59.0 °F 57.9 °F 96% 29.80 in 10.0 mi SSE 6.9 mph - 0.00 in Rain Light Rain
7:04 AM 59.0 °F 57.9 °F 96% 29.78 in 5.0 mi SSE 5.8 mph - 0.01 in Rain Light Rain
7:31 AM 59.0 °F 57.9 °F 96% 29.78 in 2.0 mi SSW 3.5 mph - 0.04 in Rain Light Rain
7:51 AM 59.0 °F 57.9 °F 96% 29.78 in 2.0 mi SSE 4.6 mph - 0.08 in Rain Light Rain
8:51 AM 57.0 °F 55.0 °F 93% 29.82 in 2.0 mi West 5.8 mph - 0.13 in Rain Light Rain
9:01 AM 55.9 °F 54.0 °F 93% 29.84 in 1.0 mi WSW 8.1 mph 20.7 mph 0.02 in Rain Heavy Rain
9:20 AM 55.0 °F 53.1 °F 93% 29.82 in 8.0 mi West 6.9 mph 17.3 mph 0.17 in Rain Light Rain
9:51 AM 55.0 °F 53.1 °F 93% 29.85 in 5.0 mi SW 3.5 mph - 0.19 in Rain Light Rain
10:51 AM 57.0 °F 53.1 °F 87% 29.79 in 10.0 mi SE 6.9 mph - 0.03 in Rain Light Rain
11:51 AM 55.0 °F 53.1 °F 93% 29.82 in 9.0 mi South 9.2 mph 18.4 mph 0.04 in Rain Light Rain
12:06 PM 55.0 °F 53.1 °F 93% 29.81 in 10.0 mi South 9.2 mph - 0.01 in Rain Light Rain
12:41 PM 55.0 °F 53.1 °F 93% 29.80 in 10.0 mi South 8.1 mph - 0.03 in   Overcast
12:51 PM 55.0 °F 53.1 °F 93% 29.81 in 10.0 mi South 4.6 mph - 0.03 in   Overcast
1:31 PM 55.0 °F 52.0 °F 89% 29.78 in 10.0 mi South 8.1 mph - N/A   Overcast
2:28 PM 55.0 °F 51.1 °F 86% 29.77 in 10.0 mi South 4.6 mph - N/A   Mostly Cloudy
2:37 PM 55.0 °F 51.1 °F 86% 29.77 in 10.0 mi South 6.9 mph - N/A   Mostly Cloudy
2:51 PM 55.0 °F 51.1 °F 86% 29.78 in 10.0 mi South 6.9 mph - N/A   Mostly Cloudy
3:16 PM 55.9 °F 52.0 °F 87% 29.76 in 10.0 mi South 6.9 mph - N/A   Mostly Cloudy
3:51 PM 57.9 °F 51.1 °F 78% 29.76 in 10.0 mi SSW 9.2 mph - N/A   Mostly Cloudy
4:51 PM 61.0 °F 50.0 °F 67% 29.76 in 10.0 mi South 6.9 mph - N/A   Scattered Clouds
5:51 PM 59.0 °F 48.9 °F 69% 29.78 in 10.0 mi SSW 8.1 mph - N/A   Scattered Clouds
6:51 PM 57.9 °F 50.0 °F 75% 29.81 in 10.0 mi SSW 4.6 mph - N/A   Scattered Clouds
7:51 PM 55.0 °F 48.9 °F 80% 29.83 in 10.0 mi SW 4.6 mph - N/A   Partly Cloudy
8:51 PM 54.0 °F 45.0 °F 72% 29.86 in 10.0 mi WSW 5.8 mph - N/A   Partly Cloudy
9:51 PM 53.1 °F 42.1 °F 66% 29.88 in 10.0 mi WSW 6.9 mph - N/A   Partly Cloudy
10:51 PM 51.1 °F 39.9 °F 66% 29.90 in 10.0 mi WSW 4.6 mph - N/A   Partly Cloudy
11:51 PM 48.0 °F 41.0 °F 77% 29.91 in 10.0 mi Calm Calm - N/A   Partly Cloudy